Weather History for De Queen, AR

Change the Weather History Date:

Tuesday, October 1, 2013

  Actual Average Record
Temperature  
Mean Temperature 77 °F 68 °F  
Max Temperature 85 °F 80 °F 104 °F (1938)
Min Temperature 68 °F 55 °F 35 °F (1984)
Degree Days  
Heating Degree Days 0 2  
Month to date heating degree days 0 2  
Since 1 July heating degree days 0 11  
Cooling Degree Days 12 4  
Month to date cooling degree days 12 4  
Year to date cooling degree days 1948 1869  
Growing Degree Days 25 (Base 50)    
Moisture  
Dew Point 71 °F    
Average Humidity 87    
Maximum Humidity 100    
Minimum Humidity 74    
Precipitation  
Precipitation 0.01 in 0.16 in 2.70 in (1954)
Month to date precipitation 0.01 0.16  
Year to date precipitation 26.26 35.36  
Snow  
Snow 0.00 in - - ()
Month to date snowfall 0.0  
Since 1 July snowfall 0.0  
Since 1 September snowfall 0.0  
Snow Depth 0.00 in    
Sea Level Pressure  
Sea Level Pressure 29.92 in    
Wind  
Wind Speed 3 mph (ESE)    
Max Wind Speed 10 mph    
Max Gust Speed 14 mph    
Visibility 4 miles    
Events Fog    
T = Trace of Precipitation, MM = Missing Value Source: NWS Daily Summary

Daily Weather History Graph

Daily Weather History Graph

Search for Another Location

Airport:

Trip Planner

Search our weather history database for the weather conditions in past years. The results will help you decide how hot, cold, wet, or windy it might be!

Date:

Astronomy

Oct. 01, 2013 Rise Set
Actual Time 7:12 AM CDT 7:01 PM CDT
Civil Twilight 6:47 AM CDT 7:26 PM CDT
Nautical Twilight 6:18 AM CDT 7:55 PM CDT
Astronomical Twilight 5:49 AM CDT 8:24 PM CDT
Moon 3:55 AM CDT (10/1) 4:59 PM CDT (10/1)
Length of Visible Light 12h 39m
Length of Day
11h 49m
Waning Crescent, 12% of the Moon is Illuminated
Oct 1
Waning Crescent
Oct 4
New
Oct 11
First Quarter
Oct 18
Full
Oct 26
Last Quarter

Hourly Weather History & Observations

Time (CDT) Temp. Heat Index Dew Point Humidity Pressure Visibility Wind Dir Wind Speed Gust Speed Precip Events Conditions
12:23 AM 71.1 °F - 70.0 °F 96% 29.87 in 1.5 mi ENE 3.5 mph - N/A   Clear
12:42 AM 70.0 °F - 70.0 °F 100% 29.87 in 0.5 mi ENE 3.5 mph - N/A Fog Fog
12:53 AM 70.0 °F - 70.0 °F 100% 29.86 in 0.5 mi ENE 3.5 mph - N/A Fog Fog
1:06 AM 70.0 °F - 70.0 °F 100% 29.88 in 0.5 mi NE 3.5 mph - N/A Fog Fog
1:19 AM 70.0 °F - 70.0 °F 100% 29.88 in 0.2 mi ENE 3.5 mph - N/A Fog Fog
1:32 AM 69.1 °F - 69.1 °F 100% 29.88 in 0.2 mi Calm Calm - N/A Fog Fog
1:53 AM 69.1 °F - 69.1 °F 100% 29.87 in 0.2 mi Calm Calm - N/A Fog Fog
2:02 AM 69.1 °F - 69.1 °F 100% 29.88 in 0.2 mi Calm Calm - N/A Fog Fog
2:24 AM 69.1 °F - 69.1 °F 100% 29.89 in 0.2 mi Calm Calm - N/A Fog Fog
2:34 AM 68.0 °F - 68.0 °F 100% 29.89 in 0.2 mi Calm Calm - N/A Fog Fog
2:53 AM 69.1 °F - 69.1 °F 100% 29.88 in 0.5 mi Calm Calm - N/A Fog Fog
3:00 AM 68.0 °F - 68.0 °F 100% 29.89 in 0.2 mi Calm Calm - N/A Fog Fog
3:21 AM 69.1 °F - 68.0 °F 96% 29.89 in 0.2 mi ENE 3.5 mph - N/A Fog Fog
3:29 AM 69.1 °F - 69.1 °F 100% 29.89 in 0.8 mi ENE 3.5 mph - N/A   Overcast
3:53 AM 70.0 °F - 69.1 °F 97% 29.88 in 1.5 mi Calm Calm - N/A   Mostly Cloudy
4:12 AM 70.0 °F - 70.0 °F 100% 29.89 in 3.0 mi ESE 3.5 mph - N/A   Mostly Cloudy
4:32 AM 70.0 °F - 70.0 °F 100% 29.89 in 2.5 mi Calm Calm - N/A   Mostly Cloudy
4:46 AM 70.0 °F - 70.0 °F 100% 29.89 in 1.0 mi Calm Calm - N/A   Mostly Cloudy
4:53 AM 69.1 °F - 69.1 °F 100% 29.88 in 0.8 mi ENE 3.5 mph - N/A   Mostly Cloudy
5:03 AM 69.1 °F - 69.1 °F 100% 29.90 in 2.0 mi Calm Calm - N/A   Mostly Cloudy
5:09 AM 70.0 °F - 70.0 °F 100% 29.90 in 3.0 mi Calm Calm - N/A   Overcast
5:53 AM 71.1 °F - 71.1 °F 100% 29.91 in 4.0 mi ESE 3.5 mph - N/A   Overcast
6:36 AM 71.1 °F - 71.1 °F 100% 29.93 in 3.0 mi ESE 3.5 mph - N/A   Overcast
6:53 AM 71.1 °F - 71.1 °F 100% 29.92 in 3.0 mi ESE 4.6 mph - N/A   Overcast
7:19 AM 72.0 °F - 71.1 °F 97% 29.94 in 3.0 mi East 4.6 mph - N/A   Overcast
7:27 AM 72.0 °F - 71.1 °F 97% 29.94 in 2.5 mi ESE 4.6 mph - N/A   Overcast
7:40 AM 72.0 °F - 71.1 °F 97% 29.94 in 1.5 mi ESE 5.8 mph - N/A   Overcast
7:53 AM 72.0 °F - 71.1 °F 97% 29.94 in 1.5 mi ESE 4.6 mph - N/A   Overcast
8:17 AM 72.0 °F - 71.1 °F 97% 29.95 in 2.0 mi East 5.8 mph - N/A   Overcast
8:53 AM 72.0 °F - 71.1 °F 97% 29.95 in 2.0 mi East 5.8 mph - N/A   Overcast
9:27 AM 73.0 °F - 72.0 °F 96% 29.97 in 2.0 mi ESE 3.5 mph - N/A   Overcast
9:53 AM 73.0 °F - 72.0 °F 96% 29.97 in 2.0 mi SE 5.8 mph - N/A   Overcast
10:25 AM 73.0 °F - 72.0 °F 96% 29.98 in 1.8 mi SE 5.8 mph - N/A   Overcast
10:53 AM 73.0 °F - 72.0 °F 96% 29.97 in 1.8 mi SSE 3.5 mph - N/A   Overcast
11:08 AM 73.0 °F - 72.0 °F 96% 29.99 in 2.5 mi SSE 5.8 mph - N/A   Overcast
11:15 AM 73.9 °F - 72.0 °F 93% 29.99 in 2.5 mi South 4.6 mph - N/A   Overcast
11:34 AM 73.9 °F - 72.0 °F 93% 29.99 in 3.0 mi SSE 3.5 mph - N/A   Overcast
11:53 AM 73.9 °F - 72.0 °F 93% 29.98 in 3.0 mi South 4.6 mph - N/A   Overcast
12:53 PM 75.0 °F - 72.0 °F 90% 29.96 in 4.0 mi SSE 5.8 mph - N/A   Overcast
1:53 PM 75.9 °F - 73.0 °F 91% 29.95 in 4.0 mi SE 3.5 mph - N/A   Overcast
2:14 PM 78.1 °F - 73.0 °F 84% 29.95 in 8.0 mi Variable 3.5 mph - N/A   Overcast
2:21 PM 78.1 °F - 73.0 °F 84% 29.94 in 9.0 mi East 4.6 mph - N/A   Overcast
2:31 PM 80.1 °F 84.2 °F 73.0 °F 79% 29.94 in 10.0 mi ENE 3.5 mph - N/A   Mostly Cloudy
2:53 PM 80.1 °F 83.8 °F 72.0 °F 76% 29.93 in 7.0 mi Calm Calm - N/A   Overcast
3:05 PM 80.1 °F 84.2 °F 73.0 °F 79% 29.93 in 7.0 mi Calm Calm - N/A   Overcast
3:13 PM 81.0 °F 85.8 °F 73.0 °F 77% 29.93 in 7.0 mi Calm Calm - N/A   Mostly Cloudy
3:53 PM 82.0 °F 87.4 °F 73.0 °F 74% 29.91 in 9.0 mi Variable 3.5 mph - N/A   Scattered Clouds
4:53 PM 80.1 °F 84.5 °F 73.9 °F 81% 29.91 in 9.0 mi SE 3.5 mph - 0.00 in   Mostly Cloudy
5:53 PM 79.0 °F - 73.9 °F 84% 29.91 in 8.0 mi SE 4.6 mph - 0.01 in   Overcast
6:53 PM 77.0 °F - 73.9 °F 90% 29.91 in 6.0 mi ESE 3.5 mph - N/A   Clear
7:53 PM 73.9 °F - 72.0 °F 93% 29.92 in 8.0 mi Calm Calm - N/A   Clear
8:24 PM 73.0 °F - 72.0 °F 96% 29.94 in 1.8 mi Calm Calm - N/A   Scattered Clouds
8:38 PM 73.0 °F - 72.0 °F 96% 29.95 in 4.0 mi East 3.5 mph - N/A   Partly Cloudy
8:53 PM 72.0 °F - 72.0 °F 100% 29.95 in 8.0 mi East 3.5 mph - N/A   Clear
9:53 PM 73.9 °F - 72.0 °F 93% 29.95 in 10.0 mi ENE 3.5 mph - N/A   Mostly Cloudy
10:53 PM 72.0 °F - 71.1 °F 97% 29.95 in 8.0 mi East 3.5 mph - N/A   Clear
11:53 PM 73.0 °F - 72.0 °F 96% 29.96 in 10.0 mi SE 5.8 mph - N/A   Clear